Tracking 31027 objects as of 19-Jul-2025
HD Live streaming from Space Station
objects crossing your sky now

NOAA 16 DEB

Track NOAA 16 DEB now!
10-day predictions


NORAD ID: 41430
Int'l Code: 2000-055LK
Perigee: 720.7 km
Apogee: 773.5 km
Inclination: 99.0 °
Period: 99.6 minutes
Semi major axis: 7118 km
RCS: Unknown
Launch date: September 21, 2000
Source: United States (US)
Launch site: AIR FORCE WESTERN TEST RANGE (AFWTR)

Note: This is SATELLITE DEBRIS
Your satellite tracking list
SL-8 DEB
Track 1 satellite(s)




NASA's NSSDC Master Catalog

Two Line Element Set (TLE):
1 41430U 00055LK  25199.50084894  .00004585  00000-0  12998-2 0  9999
2 41430  99.0184  30.2141 0037090  59.3666 301.1172 14.45615396493847
Source of the keplerian elements: AFSPC